#timestamp,LO_Frequency,Hit,StdDev 
1507017615.6,286046998.3,N
1507017635.4,286047000.7,N
1507017655.2,286047002.6,N
1507017675.1,286047001.1,N
1507017676.0,286047001.1,N
1507017695.8,286046998.5,N
1507017715.7,286047000.6,N
1507017735.5,286047001.2,N
1507017755.3,286047000.9,N
1507017775.2,286046998.2,N
1507017795.0,286047000.4,N
1507017795.9,286047000.4,N
1507017815.8,286047001.2,N
1507017835.6,286047001.1,N
1507017855.4,286046998.8,N
1507017875.3,286046996.5,N
1507017895.1,286046998.3,N
1507017915.9,286046998.4,N
1507017935.7,286046999.3,N
1507017955.5,286046999.2,N
1507017975.4,286046999.2,N
1507017995.2,286046996.7,N
1507018015.1,286046995.2,Y
1507018016.0,286046995.2,P
1507018035.8,286046995.1,N
1507018055.6,286046997.7,N
1507018075.5,286046997.3,N
1507018095.3,286046997.5,N
1507018115.1,286046997.9,N
1507018135.9,286046997.1,N
1507018155.7,286046996.8,N
1507018175.6,286046997.3,N
1507018195.4,286046997.0,N
1507018215.3,286046994.9,Y
1507018235.1,286046999.1,P
1507018236.0,286046999.1,N
1507018255.8,286046996.6,P
1507018275.7,286046996.5,Y
1507018295.5,286047000.2,P
1507018315.4,286047000.8,N
1507018335.2,286046998.5,N
1507018355.0,286047001.1,N
1507018355.9,286047001.1,N
1507018375.8,286047001.2,N
1507018395.6,286046998.6,N
1507018415.5,286047000.0,N
1507018435.3,286046999.3,N
1507018455.1,286046997.0,N
1507018475.9,286046999.5,N
1507018495.7,286046999.0,N
1507018515.6,286046998.9,N
1507018535.4,286046998.1,N
1507018555.2,286046998.1,N
1507018575.1,286046998.4,N
1507018576.0,286046998.4,N
1507018595.8,286046998.8,N
1507018615.7,286046999.3,N
1507018635.5,286046999.5,N
1507018655.3,286046999.2,N
1507018675.2,286046996.6,Y
1507018695.0,286046999.2,P
1507018695.9,286046999.2,P
1507018715.8,286046998.7,P
1507018735.6,286046999.1,Y
1507018755.4,286046999.0,P
1507018775.3,286046998.6,P
1507018795.1,286046999.2,P
1507018815.9,286046999.4,N
1507018835.7,286046999.3,N
1507018855.5,286046997.2,Y
1507018875.4,286046998.7,P
1507018895.2,286046999.1,P
1507018915.1,286046996.5,P
1507018916.0,286046996.5,Y
1507018935.8,286047002.4,P
1507018955.6,286047002.1,N
1507018975.5,286046999.9,N
1507018995.3,286047001.1,N
1507019015.2,286046999.0,N
1507019035.9,286047001.1,N
1507019055.7,286046998.9,N
1507019075.6,286046998.3,N
1507019095.4,286046998.3,N
1507019115.3,286047001.1,N
1507019135.1,286046998.5,N
1507019136.0,286046998.5,N
1507019155.8,286046998.2,N
1507019175.7,286046998.8,N
1507019195.5,286046996.6,N
1507019215.3,286046999.4,N
1507019235.2,286046998.3,N
1507019255.0,286047001.1,N
1507019255.9,286047001.1,N
1507019275.8,286046998.7,N
1507019295.6,286047001.2,N
1507019315.4,286046998.5,N
1507019335.3,286046998.9,N
1507019355.1,286046999.3,N
1507019375.9,286046998.7,N
1507019395.7,286046998.4,N
1507019415.5,286046998.6,N
1507019435.4,286046999.4,N
1507019455.2,286046996.8,N
1507019475.1,286046997.8,N
1507019476.0,286046997.8,N
1507019495.8,286046997.0,N
1507019515.6,286046997.4,N
1507019535.5,286046997.1,N
1507019555.3,286046996.8,N
1507019575.2,286046999.2,N
1507019595.9,286046998.5,N
1507019615.7,286046996.9,N
1507019635.6,286046996.6,N
1507019655.4,286046999.1,N
1507019675.3,286046998.9,N
1507019695.1,286046998.6,N
1507019696.0,286046998.6,N
1507019715.8,286046998.6,N
1507019735.7,286046996.6,N
1507019755.5,286046998.4,N
1507019775.3,286046998.8,N
1507019795.2,286046999.6,N
1507019815.0,286046998.9,N
1507019815.9,286046998.9,N
1507019835.8,286046998.2,N
1507019855.6,286046999.0,N
1507019875.5,286046996.9,Y
1507019895.3,286047000.6,P
1507019915.1,286046998.6,N
1507019935.9,286046999.1,N
1507019955.7,286046999.4,N
1507019975.5,286046998.3,N
1507019995.4,286046996.6,Y
1507020015.2,286047001.2,P
1507020035.1,286046998.1,N
1507020036.0,286046998.1,N
1507020055.8,286046998.7,N
1507020075.6,286047000.5,N
1507020095.5,286046998.6,N
1507020115.3,286046998.4,N
1507020135.2,286047000.9,N
1507020155.9,286047000.0,N
1507020175.7,286047000.3,N
1507020195.6,286047000.3,N
1507020215.4,286047001.2,N
1507020235.3,286047000.0,N
1507020255.1,286047002.6,N
1507020256.0,286047002.6,N
1507020275.8,286046999.7,N
1507020295.7,286047002.4,N
1507020315.5,286047000.0,N
1507020335.4,286047002.8,N
1507020355.2,286047002.4,N
1507020375.0,286047000.1,N
1507020375.9,286047000.1,N
1507020395.8,286047001.8,N
1507020415.6,286047002.0,N
1507020435.5,286047001.6,N
1507020455.3,286047001.6,N
1507020475.1,286047001.5,N
1507020495.9,286047001.6,N
1507020515.7,286047002.1,N
1507020535.5,286047004.3,Y
1507020555.4,286047001.6,P
1507020575.2,286047002.1,P
1507020595.1,286047001.4,N
1507020596.0,286047001.4,N
1507020615.8,286047004.2,Y
1507020635.7,286047002.2,P
1507020655.5,286046999.8,N
1507020675.3,286047002.5,N
1507020695.2,286047002.8,N
1507020715.0,286047002.8,N
1507020715.9,286047002.8,N
1507020735.8,286047002.6,N
1507020755.6,286047001.8,N
1507020775.4,286047002.2,N
1507020795.3,286047002.7,Y
1507020815.1,286047001.2,P
1507020835.9,286047000.9,N
1507020855.7,286047001.2,N
1507020875.5,286047000.6,N
1507020895.4,286047000.2,N
1507020915.2,286047000.1,N
1507020935.0,286047000.8,N
1507020935.9,286047000.8,N
1507020955.8,286047002.7,Y
1507020975.6,286047000.2,P
1507020995.5,286047000.1,N
1507021015.3,286047002.3,P
1507021035.1,286047000.7,N
1507021055.9,286046998.2,N
1507021075.7,286047001.2,N
1507021095.6,286047002.7,N
1507021115.4,286047001.0,N
1507021135.2,286047002.8,N
1507021155.1,286047001.5,N
1507021156.0,286047001.5,N
1507021175.8,286047000.1,N
1507021195.7,286046999.9,N
